Location: Zagreb
(45.8000°N, 16.0000°E)
Time: 18:19:01
(UTC+01:00)

N. Korean satellite - Pass Details

Date: 11 December 2021
Orbit: 447 x 491 km, 97.3° (Epoch: 23 January)

Event Time Altitude Azimuth Distance (km) Brightness Sun altitude
Rises 05:36:33 0° 6° (N) 2,461 10.1 -18.4°
Reaches altitude 10° 05:38:38 10° 1° (N) 1,584 9.0 -18.1°
Enters shadow 05:38:49 11° 0° (N) 1,505 8.9 -18.0°
Exits shadow 05:42:55 34° 238° (WSW) 759 7.2 -17.3°
Drops below altitude 10° 05:45:09 10° 212° (SSW) 1,577 9.0 -17.0°
Sets 05:47:13 0° 207° (SSW) 2,449 10.0 -16.6°
